SCP
0 0 0 0 0 0 0 0 0 0 0 0 0 0 0 0 0 0 0 0 0 0 0 0 0 0 0 0 0 0 0 0 0 0 0 0 0 0 0 0 0 0 0
0 0 0 0 0 0 0 0 0 0 0 0 0 0 0 0 0 0 0 0 0 0 0 0 0 0 0 0 0 0 0 0 0 0 0 0 0 0 0 0 0 0 0
0 0 0 0 0 0 0 0 0 0 0 0 0 0 0 0 0 0 0 0 0 0 0 0 0 0 0 0 0 0 0 0 0 0 0 0 0 0 0 0 0 0 0
0 0 0 0 0 0 0 0 0 0 0 0 0 0 0 0 0 0 0 0 0 0 0 0 0 0 0 0 0 0 0 0 0 0 0 0 0 0 0 0 0 0 0
0 0 0 0 0 0 0 0 0 0 0 0 0 0 0 0 0 0 0 0 0 0 0 0 0 0 0 0 0 0 0 0 0 0 0 0 0 0 0 0 0 0 0
0 0 0 0 0 0 0 0 0 0 0 0 0 0 0 0 0 0 0 0 0 0 0 0 0 0 0 0 0 0 0 0 0 0 0 0 0 0 0 0 0 0 0
0 0 0 0 0 0 0 0 0 0 0 0 0 0 0 0 0 0 0 0 0 0 0 0 0 0 0 0 0 0 0 0 0 0 0 0 0 0 0 0 0 0 0
0 0 0 0 0 0 0 0 0 0 0 0 0 0 0 0 0 0 0 0 0 0 0 0 0 0 0 0 0 0 0 0 0 0 0 0 0 0 0 0 0 0 0
0 0 0 0 0 0 0 0 0 0 0 0 0 0 0 0 0 0 0 0 0 0 0 0 0 0 0 0 0 0 0 0 0 0 0 0 0 0 0 0 0 0 0
0 0 0 0 0 0 0 0 0 0 0 0 0 0 0 0 0 0 0 0 0 0 0 0 0 0 0 0 0 0 0 0 0 0 0 0 0 0 0 0 0 0 0
0 0 0 0 0 0 0 0 0 0 0 0 0 0 0 0 0 0 0 0 0 0 0 0 0 0 0 0 0 0 0 0 0 0 0 0 0 0 0 0 0 0 0
0 0 0 0 0 0 0 0 0 0 0 0 0 0 0 0 0 0 0 0 0 0 0 0 0 0 0 0 0 0 0 0 0 0 0 0 0 0 0 0 0 0 0
0 0 0 0 0 0 0 0 0 0 0 0 0 0 0 0 0 0 0 0 0 0 0 0 0 0 0 0 0 0 0 0 0 0 0 0 0 0 0 0 0 0 0
0 0 0 0 0 0 0 0 0 0 0 0 0 0 0 0 0 0 0 0 0 0 0 0 0 0 0 0 0 0 0 0 0 0 0 0 0 0 0 0 0 0 0
0 0 0 0 0 0 0 0 0 0 0 0 0 0 0 0 0 0 0 0 0 0 0 0 0 0 0 0 0 0 0 0 0 0 0 0 0 0 0 0 0 0 0
0 0 0 0 0 0 0 0 0 0 0 0 0 0 0 0 0 0 0 0 0 0 0 0 0 0 0 0 0 0 0 0 0 0 0 0 0 0 0 0 0 0 0
0 0 0 0 0 0 0 0 0 0 0 0 0 0 0 0 0 0 0 0 0 0 0 0 0 0 0 0 0 0 0 0 0 0 0 0 0 0 0 0 0 0 0
0 0 0 0 0 0 0 0 0 0 0 0 0 0 0 0 0 0 0 0 0 0 0 0 0 0 0 0 0 0 0 0 0 0 0 0 0 0 0 0 0 0 0
0 0 0 0 0 0 0 0 0 0 0 0 0 0 0 0 0 0 0 0 0 0 0 0 0 0 0 0 0 0 0 0 0 0 0 0 0 0 0 0 0 0 0
0 0 0 0 0 0 0 0 0 0 0 0 0 0 0 0 0 0 0 0 0 0 0 0 0 0 0 0 0 0 0 0 0 0 0 0 0 0 0 0 0 0 0
0 0 0 0 0 0 0 0 0 0 0 0 0 0 0 0 0 0 0 0 0 0 0 0 0 0 0 0 0 0 0 0 0 0 0 0 0 0 0 0 0 0 0
0 0 0 0 0 0 0 0 0 0 0 0 0 0 0 0 0 0 0 0 0 0 0 0 0 0 0 0 0 0 0 0 0 0 0 0 0 0 0 0 0 0 0
0 0 0 0 0 0 0 0 0 0 0 0 0 0 0 0 0 0 0 0 0 0 0 0 0 0 0 0 0 0 0 0 0 0 0 0 0 0 0 0 0 0 0
0 0 0 0 0 0 0 0 0 0 0 0 0 0 0 0 0 0 0 0 0 0 0 0 0 0 0 0 0 0 0 0 0 0 0 0 0 0 0 0 0 0 0
0 0 0 0 0 0 0 0 0 0 0 0 0 0 0 0 0 0 0 0 0 0 0 0 0 0 0 0 0 0 0 0 0 0 0 0 0 0 0 0 0 0 0
0 0 0 0 0 0 0 0 0 0 0 0 0 0 0 0 0 0 0 0 0 0 0 0 0 0 0 0 0 0 0 0 0 0 0 0 0 0 0 0 0 0 0
Wind_Speed_500mb
24 24 23 21 19 17 15 14 12 9 9 8 6 5 5 5 6 9 13 17 20 16 11 14 15 17 17 25 30 24 26 27 30 34 35 35 35 36 37 39 41 42 43
25 25 23 22 20 18 16 13 12 11 11 10 10 9 9 7 8 11 17 20 21 13 8 10 14 14 20 32 36 28 23 28 29 31 31 31 34 36 38 39 42 44 45
28 27 25 23 20 18 18 17 16 16 14 14 14 12 12 11 12 17 18 23 22 14 13 14 17 19 21 30 28 24 26 27 26 26 28 31 34 35 38 40 41 43 45
33 30 28 24 22 22 21 20 19 20 18 17 17 16 16 16 17 21 20 24 19 16 15 14 20 18 22 25 22 23 24 23 23 24 27 30 31 34 37 39 41 42 43
37 35 31 28 28 26 24 21 22 22 21 19 18 17 16 20 24 25 26 26 19 19 16 16 21 21 21 17 17 19 19 19 19 23 27 28 30 33 35 38 41 43 45
41 40 37 35 33 30 27 24 24 21 20 18 18 18 19 25 28 27 27 29 27 23 20 20 27 22 23 14 13 13 14 16 20 23 24 27 31 33 36 39 41 43 46
46 45 42 40 39 36 29 21 24 26 23 24 22 22 26 27 25 31 35 36 29 26 22 22 20 21 18 11 10 9 12 15 18 20 24 27 31 34 38 42 44 45 47
50 50 47 45 44 40 35 30 33 32 31 31 29 26 18 23 31 34 34 34 33 29 24 22 17 14 12 10 7 8 11 14 17 22 26 30 33 36 39 41 43 47 49
54 52 49 48 47 46 41 31 32 34 33 35 33 30 15 21 25 30 36 37 34 31 30 25 17 10 9 7 7 9 11 14 19 23 26 29 33 35 39 43 46 49 50
56 53 50 49 51 52 47 36 38 38 36 37 41 44 45 48 29 20 33 35 36 35 29 25 17 9 9 4 5 7 10 15 19 23 27 29 32 36 40 44 48 51 54
58 56 52 44 47 54 52 49 48 45 47 49 51 49 55 55 50 44 29 36 36 38 33 27 16 11 10 8 3 6 9 13 19 23 27 29 33 38 42 46 52 55 55
61 59 55 52 50 54 58 52 53 53 54 56 54 64 65 61 58 58 54 37 50 40 34 28 24 14 13 9 6 6 9 14 19 23 26 31 34 38 43 49 53 57 59
68 62 56 56 55 58 58 58 58 61 62 64 67 69 69 64 57 61 51 47 50 41 37 35 28 20 15 11 9 8 11 14 19 24 26 31 36 41 46 52 54 56 59
66 55 52 54 52 50 55 59 62 63 61 67 72 72 66 60 51 60 52 64 34 38 42 36 32 25 19 14 11 10 12 14 19 22 26 32 37 42 47 51 54 57 59
65 56 51 52 54 53 52 52 58 57 64 66 66 65 61 51 55 54 58 47 49 37 44 43 37 32 24 19 14 13 12 14 18 20 26 32 38 42 47 51 55 55 59
62 54 51 58 57 55 51 55 60 59 56 62 66 57 57 47 46 52 56 46 51 42 34 42 42 32 28 22 17 15 13 15 17 18 25 32 38 42 45 52 55 56 59
59 59 62 62 61 61 59 60 56 62 56 55 54 44 51 46 41 43 47 46 40 41 36 33 38 35 32 26 21 16 15 15 15 18 24 31 37 42 47 51 54 56 58
63 68 64 68 67 66 64 64 63 65 50 50 52 39 38 41 50 47 40 34 36 36 36 36 36 39 35 30 22 18 18 15 15 15 23 30 36 41 47 50 51 54 57
70 73 70 69 68 66 62 63 65 56 51 57 42 44 45 47 43 37 38 36 35 36 34 34 33 41 37 32 26 24 19 15 15 15 21 27 34 41 44 45 47 51 54
71 70 70 67 65 66 67 61 59 58 51 44 46 50 48 45 35 37 35 35 35 34 33 34 34 37 37 34 31 26 21 17 15 14 21 27 33 37 43 42 43 49 51
72 67 66 66 65 62 60 57 52 52 52 52 50 44 45 39 37 34 33 36 36 34 36 38 38 39 40 37 34 28 25 20 15 15 20 27 31 35 39 39 37 47 49
65 62 61 61 57 54 53 50 47 52 44 41 40 43 46 39 39 38 40 38 33 32 38 40 42 42 39 37 32 28 25 22 19 20 25 28 31 34 39 37 33 45 46
53 51 52 52 52 51 40 37 37 37 39 40 38 43 46 42 41 43 42 39 37 38 38 37 39 41 40 35 32 30 27 24 24 27 29 32 35 35 41 34 28 43 46
44 46 45 43 36 31 24 28 36 39 40 41 41 44 42 43 41 43 43 40 39 40 40 41 43 41 38 35 34 32 30 28 28 29 33 34 39 42 43 29 23 42 45
43 39 32 29 25 26 28 31 36 38 40 43 42 41 39 38 39 38 38 39 41 43 44 46 47 45 41 39 38 37 33 31 31 32 34 33 42 51 49 26 23 45 46
36 30 27 28 27 26 30 36 39 40 41 40 41 42 41 43 45 42 42 43 44 45 45 48 50 48 47 45 43 40 37 35 33 33 29 35 41 43 41 35 44 44 47
Wind_Direction_500mb
189 189 189 190 191 192 192 190 187 190 199 203 203 221 240 265 305 325 345 349 345 348 0 23 26 14 28 14 358 357 5 28 23 24 24 26 27 29 29 29 28 27 25
199 203 202 204 204 205 208 210 209 212 216 221 226 222 237 259 292 316 330 331 337 329 328 347 350 358 353 354 348 2 13 24 22 17 18 20 26 28 27 26 25 23 21
212 213 214 215 215 220 222 222 225 227 232 234 236 234 235 253 288 315 314 322 325 311 300 320 330 334 346 350 355 7 17 17 17 17 21 26 25 23 25 24 21 19 19
221 223 222 224 225 228 230 231 234 237 235 236 236 244 249 267 296 304 299 308 309 293 282 307 331 337 342 353 359 1 7 10 15 24 27 24 23 24 22 18 16 14 13
224 229 230 228 230 233 235 238 242 241 240 235 239 248 254 274 292 287 289 297 279 271 272 303 319 333 334 350 355 2 2 8 19 26 28 23 18 15 14 12 9 9 9
228 233 234 233 234 234 230 240 254 251 243 238 239 245 253 269 279 272 285 289 272 267 272 301 317 331 322 341 356 360 1 15 24 24 20 14 10 6 5 4 5 5 2
231 236 238 239 238 238 240 243 250 247 239 221 234 252 269 268 266 275 279 276 255 263 272 282 296 322 311 339 357 1 10 19 19 16 10 7 3 0 1 0 360 1 0
233 238 240 242 242 240 235 239 243 242 238 231 241 253 251 261 264 264 264 262 254 253 257 274 274 308 309 344 353 6 10 16 9 6 4 1 358 358 357 357 356 355 353
238 240 244 245 242 239 239 245 238 244 242 244 251 246 239 246 248 248 248 251 251 253 262 263 270 289 313 330 343 3 0 4 359 358 356 354 354 352 352 352 350 347 348
241 243 246 250 242 237 236 232 236 244 247 251 255 254 255 254 249 233 237 236 244 247 255 257 260 266 284 295 322 335 353 355 348 346 350 349 349 349 350 348 345 347 349
245 246 244 239 239 238 237 236 236 245 250 251 254 259 260 258 259 259 241 226 230 236 240 246 255 249 261 262 282 318 333 336 339 341 345 344 346 350 348 346 346 350 352
245 243 241 241 243 244 239 240 242 245 250 252 256 255 259 258 258 252 249 232 226 221 228 237 241 243 246 243 257 290 317 329 332 335 340 344 347 348 347 349 350 351 350
239 240 242 242 244 245 243 242 244 247 251 253 254 259 261 264 269 260 253 248 211 213 215 230 236 233 231 235 250 277 305 318 329 335 338 339 349 349 350 351 354 352 350
245 246 246 246 247 249 247 244 245 248 251 259 259 265 266 265 275 264 262 251 202 213 221 228 235 235 224 230 243 270 290 317 329 327 335 345 348 348 349 352 353 351 349
245 247 246 247 247 246 245 247 245 256 260 268 270 269 269 266 273 260 259 255 250 219 222 229 232 235 226 224 236 259 285 308 315 322 336 342 345 347 350 351 350 350 347
246 246 245 243 243 246 245 249 253 254 265 265 270 263 270 275 268 261 261 247 245 243 230 230 233 228 223 222 235 255 280 297 309 320 334 339 343 347 352 349 349 347 345
249 246 244 245 246 250 252 251 258 259 268 274 271 263 258 265 264 270 243 237 234 238 246 237 223 218 220 225 232 247 269 286 305 314 332 337 340 346 348 348 346 344 342
249 245 249 249 251 250 252 254 256 271 265 259 267 263 273 243 266 253 233 234 243 242 235 235 220 216 215 225 232 246 259 277 295 313 327 335 339 346 345 345 342 341 339
245 245 249 248 250 252 256 249 265 258 266 266 258 260 259 254 242 228 233 238 231 226 229 233 228 212 213 221 230 241 252 270 295 305 323 333 339 343 340 340 340 338 337
241 245 246 246 247 248 252 257 257 259 255 250 259 258 251 245 232 235 231 226 219 219 225 220 212 210 216 222 232 237 245 258 276 297 322 336 337 338 335 337 336 338 334
240 241 242 243 246 248 251 250 246 244 246 257 252 241 237 225 231 232 228 221 216 220 218 215 213 214 218 223 228 233 240 255 282 300 323 332 328 332 334 334 334 338 339
240 236 239 242 245 243 242 237 236 243 243 235 241 230 226 236 233 227 217 213 220 223 220 217 218 221 224 227 232 239 249 267 289 298 314 322 324 331 338 334 334 340 341
227 232 237 242 245 242 231 227 224 225 233 232 228 232 234 232 233 222 219 221 222 218 216 227 230 230 232 234 238 244 256 271 287 300 310 319 323 334 338 330 328 342 341
229 232 232 230 219 214 214 225 222 227 220 221 232 235 236 239 231 223 226 229 226 226 229 231 231 233 236 240 246 253 261 272 285 298 310 312 323 328 334 326 320 342 341
220 219 218 211 214 216 224 233 222 218 227 233 234 237 236 233 229 228 234 236 234 233 234 235 235 236 239 244 252 260 266 275 286 296 304 308 322 324 332 326 320 341 342
206 206 209 211 214 225 229 223 226 238 236 239 240 236 228 225 226 228 236 238 241 241 243 242 240 242 245 249 254 262 270 277 285 294 297 307 315 325 325 319 325 336 340
Wind_Speed_850mb
24 24 23 21 19 17 15 14 12 9 9 8 6 5 5 5 6 9 13 17 20 16 11 14 15 17 17 25 30 24 26 27 30 34 35 35 35 36 37 39 41 42 43
25 25 23 22 20 18 16 13 12 11 11 10 10 9 9 7 8 11 17 20 21 13 8 10 14 14 20 32 36 28 23 28 29 31 31 31 34 36 38 39 42 44 45
28 27 25 23 20 18 18 17 16 16 14 14 14 12 12 11 12 17 18 23 22 14 13 14 17 19 21 30 28 24 26 27 26 26 28 31 34 35 38 40 41 43 45
33 30 28 24 22 22 21 20 19 20 18 17 17 16 16 16 17 21 20 24 19 16 15 14 20 18 22 25 22 23 24 23 23 24 27 30 31 34 37 39 41 42 43
37 35 31 28 28 26 24 21 22 22 21 19 18 17 16 20 24 25 26 26 19 19 16 16 21 21 21 17 17 19 19 19 19 23 27 28 30 33 35 38 41 43 45
41 40 37 35 33 30 27 24 24 21 20 18 18 18 19 25 28 27 27 29 27 23 20 20 27 22 23 14 13 13 14 16 20 23 24 27 31 33 36 39 41 43 46
46 45 42 40 39 36 29 21 24 26 23 24 22 22 26 27 25 31 35 36 29 26 22 22 20 21 18 11 10 9 12 15 18 20 24 27 31 34 38 42 44 45 47
50 50 47 45 44 40 35 30 33 32 31 31 29 26 18 23 31 34 34 34 33 29 24 22 17 14 12 10 7 8 11 14 17 22 26 30 33 36 39 41 43 47 49
54 52 49 48 47 46 41 31 32 34 33 35 33 30 15 21 25 30 36 37 34 31 30 25 17 10 9 7 7 9 11 14 19 23 26 29 33 35 39 43 46 49 50
56 53 50 49 51 52 47 36 38 38 36 37 41 44 45 48 29 20 33 35 36 35 29 25 17 9 9 4 5 7 10 15 19 23 27 29 32 36 40 44 48 51 54
58 56 52 44 47 54 52 49 48 45 47 49 51 49 55 55 50 44 29 36 36 38 33 27 16 11 10 8 3 6 9 13 19 23 27 29 33 38 42 46 52 55 55
61 59 55 52 50 54 58 52 53 53 54 56 54 64 65 61 58 58 54 37 50 40 34 28 24 14 13 9 6 6 9 14 19 23 26 31 34 38 43 49 53 57 59
68 62 56 56 55 58 58 58 58 61 62 64 67 69 69 64 57 61 51 47 50 41 37 35 28 20 15 11 9 8 11 14 19 24 26 31 36 41 46 52 54 56 59
66 55 52 54 52 50 55 59 62 63 61 67 72 72 66 60 51 60 52 64 34 38 42 36 32 25 19 14 11 10 12 14 19 22 26 32 37 42 47 51 54 57 59
65 56 51 52 54 53 52 52 58 57 64 66 66 65 61 51 55 54 58 47 49 37 44 43 37 32 24 19 14 13 12 14 18 20 26 32 38 42 47 51 55 55 59
62 54 51 58 57 55 51 55 60 59 56 62 66 57 57 47 46 52 56 46 51 42 34 42 42 32 28 22 17 15 13 15 17 18 25 32 38 42 45 52 55 56 59
59 59 62 62 61 61 59 60 56 62 56 55 54 44 51 46 41 43 47 46 40 41 36 33 38 35 32 26 21 16 15 15 15 18 24 31 37 42 47 51 54 56 58
63 68 64 68 67 66 64 64 63 65 50 50 52 39 38 41 50 47 40 34 36 36 36 36 36 39 35 30 22 18 18 15 15 15 23 30 36 41 47 50 51 54 57
70 73 70 69 68 66 62 63 65 56 51 57 42 44 45 47 43 37 38 36 35 36 34 34 33 41 37 32 26 24 19 15 15 15 21 27 34 41 44 45 47 51 54
71 70 70 67 65 66 67 61 59 58 51 44 46 50 48 45 35 37 35 35 35 34 33 34 34 37 37 34 31 26 21 17 15 14 21 27 33 37 43 42 43 49 51
72 67 66 66 65 62 60 57 52 52 52 52 50 44 45 39 37 34 33 36 36 34 36 38 38 39 40 37 34 28 25 20 15 15 20 27 31 35 39 39 37 47 49
65 62 61 61 57 54 53 50 47 52 44 41 40 43 46 39 39 38 40 38 33 32 38 40 42 42 39 37 32 28 25 22 19 20 25 28 31 34 39 37 33 45 46
53 51 52 52 52 51 40 37 37 37 39 40 38 43 46 42 41 43 42 39 37 38 38 37 39 41 40 35 32 30 27 24 24 27 29 32 35 35 41 34 28 43 46
44 46 45 43 36 31 24 28 36 39 40 41 41 44 42 43 41 43 43 40 39 40 40 41 43 41 38 35 34 32 30 28 28 29 33 34 39 42 43 29 23 42 45
43 39 32 29 25 26 28 31 36 38 40 43 42 41 39 38 39 38 38 39 41 43 44 46 47 45 41 39 38 37 33 31 31 32 34 33 42 51 49 26 23 45 46
36 30 27 28 27 26 30 36 39 40 41 40 41 42 41 43 45 42 42 43 44 45 45 48 50 48 47 45 43 40 37 35 33 33 29 35 41 43 41 35 44 44 47
Wind_Direction_850mb
189 189 189 190 191 192 192 190 187 190 199 203 203 221 240 265 305 325 345 349 345 348 0 23 26 14 28 14 358 357 5 28 23 24 24 26 27 29 29 29 28 27 25
199 203 202 204 204 205 208 210 209 212 216 221 226 222 237 259 292 316 330 331 337 329 328 347 350 358 353 354 348 2 13 24 22 17 18 20 26 28 27 26 25 23 21
212 213 214 215 215 220 222 222 225 227 232 234 236 234 235 253 288 315 314 322 325 311 300 320 330 334 346 350 355 7 17 17 17 17 21 26 25 23 25 24 21 19 19
221 223 222 224 225 228 230 231 234 237 235 236 236 244 249 267 296 304 299 308 309 293 282 307 331 337 342 353 359 1 7 10 15 24 27 24 23 24 22 18 16 14 13
224 229 230 228 230 233 235 238 242 241 240 235 239 248 254 274 292 287 289 297 279 271 272 303 319 333 334 350 355 2 2 8 19 26 28 23 18 15 14 12 9 9 9
228 233 234 233 234 234 230 240 254 251 243 238 239 245 253 269 279 272 285 289 272 267 272 301 317 331 322 341 356 360 1 15 24 24 20 14 10 6 5 4 5 5 2
231 236 238 239 238 238 240 243 250 247 239 221 234 252 269 268 266 275 279 276 255 263 272 282 296 322 311 339 357 1 10 19 19 16 10 7 3 0 1 0 360 1 0
233 238 240 242 242 240 235 239 243 242 238 231 241 253 251 261 264 264 264 262 254 253 257 274 274 308 309 344 353 6 10 16 9 6 4 1 358 358 357 357 356 355 353
238 240 244 245 242 239 239 245 238 244 242 244 251 246 239 246 248 248 248 251 251 253 262 263 270 289 313 330 343 3 0 4 359 358 356 354 354 352 352 352 350 347 348
241 243 246 250 242 237 236 232 236 244 247 251 255 254 255 254 249 233 237 236 244 247 255 257 260 266 284 295 322 335 353 355 348 346 350 349 349 349 350 348 345 347 349
245 246 244 239 239 238 237 236 236 245 250 251 254 259 260 258 259 259 241 226 230 236 240 246 255 249 261 262 282 318 333 336 339 341 345 344 346 350 348 346 346 350 352
245 243 241 241 243 244 239 240 242 245 250 252 256 255 259 258 258 252 249 232 226 221 228 237 241 243 246 243 257 290 317 329 332 335 340 344 347 348 347 349 350 351 350
239 240 242 242 244 245 243 242 244 247 251 253 254 259 261 264 269 260 253 248 211 213 215 230 236 233 231 235 250 277 305 318 329 335 338 339 349 349 350 351 354 352 350
245 246 246 246 247 249 247 244 245 248 251 259 259 265 266 265 275 264 262 251 202 213 221 228 235 235 224 230 243 270 290 317 329 327 335 345 348 348 349 352 353 351 349
245 247 246 247 247 246 245 247 245 256 260 268 270 269 269 266 273 260 259 255 250 219 222 229 232 235 226 224 236 259 285 308 315 322 336 342 345 347 350 351 350 350 347
246 246 245 243 243 246 245 249 253 254 265 265 270 263 270 275 268 261 261 247 245 243 230 230 233 228 223 222 235 255 280 297 309 320 334 339 343 347 352 349 349 347 345
249 246 244 245 246 250 252 251 258 259 268 274 271 263 258 265 264 270 243 237 234 238 246 237 223 218 220 225 232 247 269 286 305 314 332 337 340 346 348 348 346 344 342
249 245 249 249 251 250 252 254 256 271 265 259 267 263 273 243 266 253 233 234 243 242 235 235 220 216 215 225 232 246 259 277 295 313 327 335 339 346 345 345 342 341 339
245 245 249 248 250 252 256 249 265 258 266 266 258 260 259 254 242 228 233 238 231 226 229 233 228 212 213 221 230 241 252 270 295 305 323 333 339 343 340 340 340 338 337
241 245 246 246 247 248 252 257 257 259 255 250 259 258 251 245 232 235 231 226 219 219 225 220 212 210 216 222 232 237 245 258 276 297 322 336 337 338 335 337 336 338 334
240 241 242 243 246 248 251 250 246 244 246 257 252 241 237 225 231 232 228 221 216 220 218 215 213 214 218 223 228 233 240 255 282 300 323 332 328 332 334 334 334 338 339
240 236 239 242 245 243 242 237 236 243 243 235 241 230 226 236 233 227 217 213 220 223 220 217 218 221 224 227 232 239 249 267 289 298 314 322 324 331 338 334 334 340 341
227 232 237 242 245 242 231 227 224 225 233 232 228 232 234 232 233 222 219 221 222 218 216 227 230 230 232 234 238 244 256 271 287 300 310 319 323 334 338 330 328 342 341
229 232 232 230 219 214 214 225 222 227 220 221 232 235 236 239 231 223 226 229 226 226 229 231 231 233 236 240 246 253 261 272 285 298 310 312 323 328 334 326 320 342 341
220 219 218 211 214 216 224 233 222 218 227 233 234 237 236 233 229 228 234 236 234 233 234 235 235 236 239 244 252 260 266 275 286 296 304 308 322 324 332 326 320 341 342
206 206 209 211 214 225 229 223 226 238 236 239 240 236 228 225 226 228 236 238 241 241 243 242 240 242 245 249 254 262 270 277 285 294 297 307 315 325 325 319 325 336 340